Wind_Speed
7 8 7 6 7 6 6 7 7 7 8 8 8 9 9 10 10 11 11 11 10 10 10 10 10 10 10 11 12 12 12 12 12 13 13 13 13 13 12 12 12 11 10 12 13 14 13 14 12 14 21 21
9 10 10 9 8 8 8 8 9 9 9 9 10 10 11 11 11 12 12 12 12 12 12 12 12 10 10 11 13 13 13 13 13 13 13 13 13 13 13 12 12 10 10 12 14 15 15 15 15 18 21 21
11 11 11 11 10 10 11 11 11 11 11 11 11 12 12 12 13 13 13 13 14 14 14 15 14 13 11 11 13 14 14 14 13 13 12 12 13 13 12 12 12 12 12 14 14 15 15 16 17 20 21 21
13 12 12 12 12 12 12 13 13 13 13 13 13 14 14 14 14 14 15 15 16 16 16 16 16 16 14 12 13 14 14 14 14 13 13 13 13 13 12 12 15 17 17 17 16 15 15 17 19 20 21 21
14 13 13 13 14 14 14 14 14 14 14 14 15 15 15 15 15 15 16 16 17 17 18 18 18 18 17 15 15 14 14 14 13 13 13 14 14 14 13 14 19 21 21 21 19 17 17 18 21 21 21 22
15 14 14 14 15 15 16 15 15 16 16 16 16 16 16 17 16 16 17 17 17 18 19 19 19 19 18 18 17 16 16 15 15 14 14 15 15 15 15 18 21 22 22 22 20 20 20 22 23 23 23 23
16 16 15 16 16 16 17 17 17 17 17 17 17 17 17 17 17 17 18 18 18 19 19 20 20 20 19 19 19 19 18 17 17 16 16 16 17 17 18 20 21 22 23 22 22 22 23 24 25 25 25 24
17 17 17 17 18 18 18 18 18 18 18 18 18 18 18 18 18 18 19 19 19 19 20 20 20 20 21 21 20 20 20 20 19 18 18 18 18 19 20 21 21 22 23 23 23 23 24 25 26 26 26 26
18 18 18 19 19 19 19 19 19 19 19 19 19 19 19 19 19 19 20 20 20 20 21 21 21 21 22 22 22 22 22 22 22 21 20 20 19 19 20 21 22 22 23 24 24 24 25 26 27 27 27 26
19 19 20 20 20 20 20 21 21 21 21 21 20 20 20 20 20 20 20 21 21 22 21 22 22 22 22 23 23 23 23 23 23 23 22 21 21 21 21 21 22 23 24 25 25 25 26 26 27 27 26 26
20 20 21 21 21 21 22 22 22 22 22 22 21 21 20 21 21 21 21 22 22 22 22 23 24 23 23 23 24 23 24 24 24 23 23 23 22 22 22 22 23 24 25 25 25 26 26 27 27 27 26 26
19 20 21 21 22 22 22 23 23 23 23 22 22 21 21 22 22 22 22 23 23 23 23 24 24 24 24 24 24 24 24 25 25 24 24 24 24 24 24 24 24 25 26 26 26 27 28 27 27 27 26 27
19 20 21 22 22 23 23 23 24 24 23 23 22 22 22 22 23 23 23 24 24 24 24 24 25 25 25 25 25 25 25 25 25 25 25 25 25 25 25 25 26 26 27 27 27 28 29 29 28 27 28 28
18 20 21 21 22 23 23 24 24 24 24 23 23 22 23 23 23 23 23 24 24 24 25 25 25 26 25 25 25 25 25 25 25 25 25 25 26 26 26 26 26 27 28 28 28 28 29 30 29 29 29 30
12 14 16 18 19 21 22 23 24 24 24 23 23 22 23 23 23 23 24 24 24 24 25 26 26 26 26 26 26 25 26 25 25 26 25 26 26 26 26 27 27 27 28 29 29 29 30 30 30 31 31 31
11 11 12 13 14 16 17 19 20 21 21 21 21 21 21 22 22 23 23 24 24 25 25 26 27 27 27 27 27 26 26 26 26 26 26 26 26 26 26 27 27 27 28 30 30 30 30 31 32 32 32 32
12 12 13 13 13 14 14 15 16 17 17 18 18 19 20 20 21 22 22 23 24 24 25 26 27 27 28 27 27 26 26 26 26 26 27 27 26 26 26 27 28 28 28 30 31 31 31 32 33 33 33 34
14 13 13 14 15 15 15 14 14 14 15 16 16 17 18 19 20 21 21 22 23 24 25 26 27 28 28 28 27 27 27 27 27 27 27 27 27 27 27 27 28 28 29 31 32 32 33 33 34 34 34 35
16 15 15 16 16 16 16 15 14 14 13 14 15 16 17 18 19 20 21 22 23 24 25 26 27 28 28 28 27 27 27 27 27 27 27 27 27 28 28 28 28 28 29 31 32 33 34 34 35 35 35 35
18 18 18 18 18 18 17 16 15 15 14 14 15 16 17 18 18 19 20 20 22 24 25 26 27 28 28 28 28 28 28 27 27 27 27 27 27 27 28 28 28 29 29 31 32 33 33 34 35 35 36 36
19 20 20 20 21 20 19 19 17 16 16 16 17 17 18 18 19 19 19 20 20 22 23 25 26 27 27 27 28 28 28 28 28 27 28 28 27 27 27 27 28 29 29 29 30 31 33 34 34 35 36 36
19 19 20 21 22 23 23 23 21 19 18 18 18 18 19 19 19 19 19 19 19 20 21 22 24 26 26 27 27 28 28 28 28 28 28 28 28 27 26 27 28 29 30 29 29 31 32 33 33 34 35 35
17 18 19 20 22 24 25 26 25 24 22 20 20 20 19 19 19 20 20 19 20 20 20 21 22 23 24 26 27 27 28 29 29 29 28 29 29 28 27 27 28 29 30 29 28 29 32 33 32 32 33 33
19 19 20 21 23 24 26 27 27 26 25 24 23 23 22 21 21 21 21 21 21 21 21 20 21 21 22 24 26 27 28 28 28 29 29 29 29 29 29 28 28 28 28 27 28 29 31 29 29 31 32 32
20 21 22 22 23 25 26 27 27 28 27 26 26 25 25 25 24 23 23 23 23 23 23 22 22 22 21 22 23 25 26 26 27 28 29 29 29 29 28 29 28 26 24 21 21 23 24 25 28 28 25 23
22 23 24 24 24 25 26 26 27 28 29 29 28 27 27 28 28 27 26 26 26 26 25 25 24 24 23 22 22 23 24 25 26 27 28 28 28 28 27 27 28 26 19 13 12 14 14 18 22 17 14 17
24 25 25 24 25 26 26 26 26 27 27 28 29 29 29 30 31 30 30 30 29 29 28 28 27 27 25 23 23 24 24 25 25 26 27 27 28 27 25 25 27 26 19 14 13 11 7 7 9 9 10 12
24 25 25 25 26 26 26 26 27 26 26 26 26 28 29 30 31 31 32 32 32 32 31 31 31 30 29 27 25 25 25 26 26 26 26 27 27 25 23 23 24 23 20 18 13 6 3 2 4 5 5 8
26 27 28 29 30 30 28 27 27 26 26 27 27 28 29 29 29 29 30 30 31 32 33 35 35 33 32 30 28 27 27 27 26 26 26 27 28 26 24 24 23 21 21 21 18 12 6 3 2 3 4 9
29 30 30 31 30 29 28 26 26 26 27 29 29 30 30 29 28 28 29 29 30 31 33 35 36 36 36 34 32 30 29 28 27 27 27 27 28 27 27 26 22 22 24 23 22 21 19 15 12 8 6 7
31 31 31 31 29 27 26 25 27 28 29 29 30 30 30 30 29 28 28 29 29 30 31 33 34 35 36 37 37 34 31 30 28 27 27 27 28 28 27 25 22 24 26 22 21 24 26 26 25 21 13 6
Wind_Direction
272 284 293 297 303 315 329 339 340 341 343 345 348 350 355 358 3 7 11 12 6 1 355 352 347 338 334 335 333 331 328 323 322 323 321 323 327 324 323 325 326 327 328 337 340 337 341 343 340 331 331 339
275 284 292 296 298 302 310 321 328 328 329 331 334 336 340 344 349 354 358 0 1 359 357 356 353 351 350 341 335 333 329 325 322 318 317 318 323 322 319 324 325 320 321 330 334 328 329 333 327 324 329 336
279 283 289 295 297 298 302 310 318 321 320 321 324 327 329 334 339 343 347 349 351 351 352 352 351 354 355 344 336 333 331 328 325 320 318 318 324 324 318 324 318 304 311 324 327 324 325 324 319 321 328 333
280 282 285 289 293 296 299 303 308 314 315 314 316 321 324 326 331 336 338 340 342 344 345 345 346 348 350 344 337 332 329 327 325 324 320 320 324 322 321 320 304 298 307 314 316 319 323 318 316 323 327 331
279 282 282 283 288 292 294 298 301 306 311 311 312 315 319 320 324 328 331 333 334 337 339 339 340 342 344 342 336 328 322 318 318 321 321 321 320 321 321 306 295 299 306 307 310 315 318 316 319 325 327 329
279 281 282 283 285 288 291 294 296 300 306 308 309 309 313 316 317 320 324 327 327 329 333 335 336 337 338 337 334 327 322 317 313 313 314 314 312 312 306 294 293 300 305 307 311 314 317 318 322 325 325 326
279 280 281 283 284 286 288 291 293 296 301 304 306 306 309 311 312 314 317 320 321 323 326 329 331 331 331 331 331 328 324 322 319 313 309 305 302 301 298 295 298 302 307 312 313 315 317 319 321 322 323 323
278 280 282 283 283 285 286 288 290 292 296 300 303 303 306 308 308 308 310 314 315 317 319 322 325 325 326 327 328 328 325 324 322 319 313 309 305 303 302 302 304 306 310 313 313 315 316 317 318 318 319 320
279 281 282 283 283 284 285 286 287 290 293 297 301 302 303 305 305 304 306 310 311 313 314 316 320 322 322 323 326 326 325 324 323 322 319 315 311 307 306 305 306 308 310 312 312 312 313 314 315 315 317 317
279 280 281 284 285 284 285 286 286 289 292 296 301 302 301 301 301 302 302 305 307 310 310 312 315 318 319 319 322 323 323 323 322 321 319 316 312 309 307 305 306 307 308 310 310 309 310 311 312 314 314 314
278 280 283 286 284 284 287 286 286 290 293 296 299 300 300 299 299 299 299 301 304 307 307 308 311 314 315 316 318 320 320 321 321 319 318 315 312 309 307 305 305 305 306 307 307 306 307 309 311 312 312 312
282 284 285 286 284 287 289 287 289 294 294 295 298 300 300 299 298 297 297 298 302 305 304 305 308 310 311 313 315 316 316 318 319 317 316 314 311 309 306 305 304 305 305 305 305 305 306 308 309 310 310 310
287 287 287 288 289 291 291 291 295 295 294 296 299 301 302 300 298 297 296 298 302 303 302 304 306 306 309 311 312 313 314 316 316 315 314 313 311 309 306 305 304 304 304 304 305 305 306 308 309 308 308 308
293 292 292 294 294 294 294 295 296 295 295 298 301 304 306 303 300 299 297 298 301 301 301 304 303 305 307 307 310 310 311 314 313 313 312 312 311 309 306 304 303 303 303 304 305 306 307 307 307 306 306 307
322 315 312 310 307 304 304 302 300 298 299 301 304 308 309 306 303 300 298 298 300 300 301 303 303 304 305 305 309 309 309 312 311 310 310 310 310 308 305 303 302 301 301 303 304 306 306 307 306 305 306 307
12 1 350 342 334 328 324 317 311 307 305 306 309 312 311 310 308 303 301 300 301 301 302 302 303 304 303 304 308 307 307 309 308 308 307 308 308 306 304 302 301 300 300 301 303 305 305 306 305 305 306 305
17 12 9 4 357 351 344 337 330 324 319 316 315 316 317 316 313 308 306 304 304 304 303 303 303 302 303 305 307 306 306 306 306 306 305 307 307 306 304 302 302 302 300 300 302 304 304 305 305 305 305 303
16 11 8 4 1 355 349 345 341 339 335 328 324 323 323 322 319 315 312 309 308 307 305 304 303 302 303 306 305 304 303 303 304 303 303 306 306 306 305 303 304 303 301 302 303 303 304 304 304 305 304 302
19 13 9 6 3 360 356 351 346 343 340 336 334 330 328 326 322 319 317 314 311 309 307 305 303 303 304 305 303 301 301 300 300 301 301 304 303 303 304 303 304 303 301 302 302 303 303 303 304 304 303 302
20 14 10 6 3 1 359 356 352 347 342 339 337 333 330 327 324 321 319 318 315 312 309 307 305 305 306 304 301 299 299 297 298 299 298 301 301 299 302 302 302 301 300 299 300 301 302 302 303 303 302 302
20 16 11 8 5 2 358 355 352 349 345 342 339 335 332 329 327 323 319 318 315 314 312 309 307 307 307 304 300 299 297 296 296 296 295 297 299 296 297 298 298 299 298 297 298 299 299 300 301 301 302 302
16 14 10 7 4 1 358 355 351 347 343 341 339 336 334 331 328 325 320 316 313 312 312 311 310 309 309 305 301 299 297 296 296 295 293 294 297 296 293 294 296 297 297 296 296 297 297 299 299 299 301 300
10 8 5 2 360 356 353 350 346 342 338 334 332 330 328 325 323 321 317 314 310 307 308 309 309 311 311 306 302 299 297 297 297 297 294 293 296 296 293 293 295 296 297 296 296 296 297 299 299 300 302 301
6 1 358 354 352 349 345 342 338 335 331 327 324 322 320 316 313 312 310 308 304 300 300 301 303 306 309 307 302 298 296 297 298 297 295 293 293 294 294 293 295 297 297 297 297 297 297 300 302 303 303 301
6 1 354 348 345 341 337 333 329 325 323 319 317 316 314 310 307 304 302 301 298 295 293 294 296 298 301 303 299 297 296 296 297 296 293 292 290 290 290 292 295 297 297 298 299 301 301 302 303 304 304 301
9 3 356 348 341 337 332 328 324 320 316 312 309 308 309 309 306 300 298 297 295 291 289 290 291 292 294 296 293 292 292 292 292 292 291 288 285 285 284 286 292 294 291 287 288 301 308 308 308 308 308 305
7 359 354 348 341 337 332 327 325 320 316 312 308 306 307 309 307 302 299 298 294 289 287 287 287 288 289 289 287 286 285 286 286 287 288 285 281 280 280 281 286 288 283 272 278 297 301 305 321 319 311 308
2 355 352 349 344 341 336 331 328 324 321 319 315 312 313 313 312 308 304 302 298 291 287 285 285 285 285 284 284 281 279 279 280 281 284 284 280 275 273 274 280 284 280 271 267 277 276 291 317 294 306 324
1 358 355 351 348 346 341 335 331 326 323 323 320 316 317 318 317 314 310 308 305 298 292 287 284 283 282 282 280 278 276 275 276 277 278 279 277 271 268 268 273 278 277 270 259 247 248 281 292 254 314 327
2 359 356 352 348 343 337 331 327 324 322 321 318 317 318 319 320 318 315 314 312 308 301 294 288 283 281 280 278 276 274 273 273 273 275 276 273 272 270 267 266 270 272 271 263 254 249 251 252 260 305 324
1 359 356 352 345 338 331 324 321 322 321 319 319 319 319 320 321 321 320 318 317 314 311 305 298 290 285 281 278 275 272 270 271 272 274 275 273 273 273 265 257 262 268 269 264 259 253 251 252 255 262 264
Height
852 852 853 853 854 854 854 854 854 854 853 853 853 852 852 852 851 851 850 850 849 848 847 846 846 845 844 844 843 843 843 842 841 840 839 838 837 836 835 834 833 832 830 829 828 827 826 824 823 821 819 818
852 852 852 853 853 853 853 853 853 853 853 853 853 852 852 852 851 851 850 850 849 848 847 846 845 844 844 843 843 843 842 841 840 840 839 837 836 836 834 833 833 831 830 829 828 826 825 824 822 820 819 817
852 852 852 852 852 853 853 852 853 853 852 852 852 852 852 851 851 850 850 849 849 848 848 847 846 845 843 843 843 842 841 840 840 839 838 837 836 835 834 833 831 829 829 828 827 826 824 823 821 819 818 816
851 852 852 852 852 852 852 852 852 852 852 852 852 851 851 851 850 850 850 849 848 848 847 847 846 845 844 843 842 841 841 839 839 838 837 836 835 834 833 832 829 828 828 827 826 825 823 822 820 818 817 815
851 851 851 852 852 852 852 852 852 852 852 851 851 851 851 850 850 850 849 849 848 847 847 846 845 844 844 843 842 841 840 838 837 837 836 835 834 833 832 830 827 826 826 825 824 823 822 821 819 817 816 814
850 850 851 851 851 851 851 851 851 851 851 851 850 850 850 850 849 849 848 848 848 847 847 846 845 844 843 842 842 840 839 838 836 835 835 834 833 832 831 828 826 826 825 824 823 822 820 819 818 816 815 813
849 850 850 850 851 851 851 851 851 850 850 850 850 849 849 849 848 848 848 847 847 846 846 845 845 844 843 842 841 840 838 837 836 834 833 832 831 830 829 827 826 825 823 822 821 820 819 817 816 815 814 812
848 849 849 850 850 850 850 850 850 850 850 849 849 849 848 848 848 847 847 846 846 846 845 845 844 843 842 841 840 839 838 836 835 833 832 831 829 828 827 826 825 824 822 821 820 819 817 816 815 813 812 811
847 848 848 848 849 849 849 849 849 848 848 848 848 848 847 847 847 846 846 845 845 845 844 844 843 842 841 840 839 838 837 836 834 832 831 829 828 827 826 825 824 823 822 820 819 818 816 815 813 812 811 810
846 847 847 847 847 848 847 847 847 847 847 847 847 847 846 846 845 845 845 844 844 843 843 843 842 841 840 839 838 837 836 834 833 832 830 828 827 826 825 823 823 822 821 819 818 817 816 814 813 811 810 808
845 846 846 846 846 846 846 846 846 846 846 846 846 846 845 845 844 844 844 843 843 842 842 841 841 840 839 838 837 836 835 833 832 831 829 828 826 825 824 822 821 820 820 818 817 816 815 813 812 810 809 807
845 845 845 845 845 845 845 845 845 845 845 845 845 845 844 843 843 842 842 842 841 841 841 840 839 839 838 837 836 835 834 832 831 830 829 827 825 824 823 821 820 819 818 817 816 814 813 812 811 809 808 807
844 844 844 844 844 844 844 844 844 844 844 844 844 843 843 842 842 841 841 840 840 839 839 838 838 837 836 836 835 834 833 832 830 829 828 826 825 823 822 820 819 818 816 815 815 813 812 810 809 808 806 805
844 844 844 844 844 843 843 843 842 843 843 843 842 842 841 841 840 840 839 839 839 838 837 837 836 836 835 834 834 832 831 831 829 828 826 825 824 822 821 819 818 816 815 813 813 812 810 809 808 806 805 804
844 844 843 843 843 842 842 842 841 841 841 841 841 840 840 839 839 838 838 838 837 837 836 835 834 834 833 832 832 831 830 829 828 826 825 824 823 821 820 818 817 816 813 812 811 810 809 808 806 805 804 802
843 843 843 842 842 841 841 840 840 840 839 839 839 839 839 838 838 837 837 836 836 835 834 833 832 832 831 830 830 829 828 827 826 825 824 823 822 820 819 817 816 815 813 810 809 809 807 806 805 803 802 800
843 842 842 841 841 840 839 839 838 838 838 838 838 837 837 836 836 836 835 835 834 833 832 831 830 830 829 828 828 827 826 825 824 823 822 821 820 819 817 815 814 813 811 809 808 807 806 804 803 801 800 798
842 841 841 840 840 839 838 838 837 837 836 836 836 836 835 835 834 834 834 833 832 831 830 829 828 828 827 826 826 825 824 823 822 821 820 819 818 817 816 814 812 811 809 808 806 805 804 802 801 799 798 796
841 841 840 840 839 838 837 837 836 835 835 834 834 834 833 833 833 832 832 831 830 829 828 827 826 825 825 824 823 823 822 821 820 819 818 817 816 814 813 812 811 809 808 806 804 803 802 800 799 797 795 794
841 840 840 839 838 838 837 836 835 834 834 833 833 832 832 831 831 830 830 829 828 827 826 825 824 823 822 822 821 820 820 819 818 817 816 815 814 813 811 810 809 808 806 805 803 801 800 798 797 795 793 791
841 840 839 839 838 837 836 835 834 834 833 832 831 831 830 830 829 828 828 827 826 825 824 823 822 820 820 819 818 817 817 816 815 815 814 813 812 811 810 808 807 806 805 803 801 800 798 796 795 793 791 789
840 840 839 838 837 837 836 835 834 833 832 831 830 830 829 828 828 827 826 825 824 823 822 821 819 818 817 817 816 815 814 813 813 812 811 810 809 809 808 806 805 803 802 801 799 798 796 794 793 791 789 787
840 839 838 837 837 836 835 834 833 832 831 830 829 828 828 827 826 825 824 823 822 821 820 819 817 816 815 814 813 812 811 810 810 809 808 807 806 806 805 804 803 801 800 799 797 795 793 791 790 788 787 785
839 838 837 836 835 834 833 833 831 831 830 829 828 827 826 825 824 823 822 821 820 819 818 816 815 814 813 812 810 809 808 807 807 806 805 805 804 803 802 801 801 800 798 796 794 792 790 789 787 785 783 782
839 838 837 835 834 833 832 831 830 829 828 827 826 825 824 823 822 821 820 819 817 816 815 814 813 812 811 809 808 807 806 805 804 804 803 802 801 800 799 798 798 798 797 795 792 789 787 786 785 783 781 779
839 838 837 836 835 833 832 830 829 827 826 825 824 823 822 821 819 818 817 816 815 813 812 811 810 809 808 807 805 804 803 802 802 801 800 800 799 798 797 796 795 796 796 795 793 790 786 783 780 779 778 777
840 839 838 837 835 833 831 829 827 825 824 822 821 821 820 818 817 816 814 813 812 810 809 808 807 806 805 804 803 801 800 800 799 798 798 798 797 796 796 794 793 794 795 794 793 793 790 785 781 777 776 775
840 839 838 836 834 832 829 827 825 823 821 820 819 818 817 816 814 813 812 810 809 808 806 805 804 802 801 801 800 799 797 797 796 796 796 795 795 794 794 793 791 792 792 792 792 793 791 789 787 781 776 774
839 837 835 833 830 828 826 824 823 820 818 817 816 814 813 812 811 810 809 808 806 805 804 802 801 799 798 797 797 795 794 793 793 793 793 793 792 792 792 791 790 790 790 790 790 792 790 789 788 783 779 776
838 836 833 830 828 826 824 822 821 819 817 815 813 812 810 809 808 807 805 804 803 801 800 799 797 796 795 794 793 792 791 790 790 790 789 789 789 789 789 788 788 788 787 787 788 788 787 786 785 781 780 780
836 834 832 830 829 828 826 823 820 818 816 814 812 810 808 806 805 804 802 800 799 798 796 795 794 793 792 790 789 789 787 786 786 786 786 786 786 785 786 786 785 784 784 785 784 784 783 782 782 781 781 781